TimeIST,TemperatureF,Dew PointF,Humidity,Sea Level PressureIn,VisibilityMPH,Wind Direction,Wind SpeedMPH,Gust SpeedMPH,PrecipitationIn,Events,Conditions,WindDirDegrees,DateUTC
12:00 AM,80.6,44.6,28,29.83,2.5,East,6.9,-,N/A,,Haze,80,2013-04-01 18:30:00
1:00 AM,80.6,42.8,26,29.80,2.5,ENE,8.1,-,N/A,,Haze,70,2013-04-01 19:30:00
2:00 AM,80.6,41.0,24,29.80,2.5,ENE,8.1,-,N/A,,Haze,70,2013-04-01 20:30:00
3:00 AM,78.8,41.0,26,29.80,2.5,East,8.1,-,N/A,,Haze,80,2013-04-01 21:30:00
4:00 AM,78.8,39.2,24,29.80,-9999.0,East,6.9,-,N/A,,Haze,90,2013-04-01 22:30:00
5:00 AM,73.4,41.0,31,29.80,2.5,ESE,6.9,-,N/A,,Haze,110,2013-04-01 23:30:00
5:30 AM,73,42,21,29.76,1,ESE,6.9,,,,Haze,110,2013-04-02 00:00:00
7:00 AM,77.0,44.6,32,29.86,1.6,East,9.2,-,N/A,,Haze,80,2013-04-02 01:30:00
8:00 AM,78.8,44.6,30,29.86,1.6,East,9.2,-,N/A,,Haze,80,2013-04-02 02:30:00
8:30 AM,81,49,22,29.81,1,East,6.9,,,,Haze,90,2013-04-02 03:00:00
9:00 AM,84.2,46.4,27,29.89,1.6,East,9.2,-,N/A,,Haze,100,2013-04-02 03:30:00
10:00 AM,86.0,48.2,27,29.92,1.6,SE,10.4,-,N/A,,Haze,140,2013-04-02 04:30:00
11:30 AM,92,52,17,29.79,1,East,10.4,,,,Haze,90,2013-04-02 06:00:00
12:00 PM,93.2,44.6,19,29.89,1.9,SE,11.5,-,N/A,,Haze,130,2013-04-02 06:30:00
1:00 PM,93.2,44.6,19,29.86,2.5,SSE,9.2,-,N/A,,Haze,150,2013-04-02 07:30:00
2:00 PM,95.0,41.0,15,29.80,3.1,ESE,9.2,-,N/A,,Haze,120,2013-04-02 08:30:00
2:30 PM,95,38,7,29.72,2,ESE,10.4,,,,Haze,110,2013-04-02 09:00:00
3:00 PM,95.0,39.2,14,29.77,3.1,Variable,4.6,-,N/A,,Haze,0,2013-04-02 09:30:00
4:00 PM,96.8,39.2,14,29.74,3.1,East,6.9,-,N/A,,Haze,90,2013-04-02 10:30:00
5:00 PM,95.0,41.0,15,29.74,3.1,East,9.2,-,N/A,,Haze,90,2013-04-02 11:30:00
6:00 PM,93.2,41.0,16,29.71,2.5,NE,5.8,-,N/A,,Haze,50,2013-04-02 12:30:00
8:30 PM,81,54,29,29.70,1,WNW,9.2,,,Thunderstorm,Thunderstorm,290,2013-04-02 15:00:00
10:00 PM,77.0,51.8,41,29.83,1.9,NE,16.1,-,N/A,Thunderstorm,Thunderstorm,50,2013-04-02 16:30:00
11:00 PM,73.4,53.6,50,29.86,1.9,Variable,15.0,29.9,N/A,Thunderstorm,Thunderstorm,0,2013-04-02 17:30:00
11:30 PM,73,52,37,29.78,1,NE,11.5,,,Thunderstorm,Thunderstorm,50,2013-04-02 18:00:00